Simultaneous Nadir Overpasses (SNOs) Predictions

Prediction of SNOs between GOES-16 and METOP-B Satellite Orbit:

Table of predicted SNOs for the next 14.0 days since TLE Epoch: 4/20/2017
Index Date Time (GOES-16) GOES-16 Lat,Lon METOP-B Lat,Lon Distance(km) Time Diff (sec)
1 04/22/2017 03:36:33 -0.00, -89.47 -0.34, -90.91 164.12 80
2 04/23/2017 03:13:13 -0.00, -89.46 0.78, -85.91 404.34 80
3 04/24/2017 15:32:05 0.00, -89.49 0.22, -90.48 112.20 80
4 04/25/2017 15:14:05 0.00, -89.49 -0.90, -85.49 456.54 80
5 04/27/2017 03:33:05 -0.00, -89.45 -0.12, -90.09 71.96 80
6 04/28/2017 03:09:45 -0.01, -89.44 0.95, -85.08 496.64 80
7 04/29/2017 15:28:36 0.01, -89.47 0.06, -89.64 20.08 80
8 05/02/2017 03:26:57 -0.01, -89.43 0.06, -89.25 21.12 80
9 05/03/2017 15:45:48 -0.00, -89.46 0.95, -93.82 495.88 80
10 05/04/2017 15:27:49 -0.00, -89.46 -0.17, -88.83 73.55 80




NCC Satellite Simultaneous Nadir Overpasses (SNOs) Prediction Service
